#timestamp,LO_Frequency,Hit,StdDev 
1570208415.5,286047001.0,N
1570208435.3,286047000.9,N
1570208455.1,286046999.0,N
1570208475.9,286046997.2,N
1570208495.7,286046995.1,N
1570208515.6,286046995.0,N
1570208535.4,286046995.9,N
1570208555.2,286046997.8,N
1570208575.1,286046995.1,N
1570208576.0,286046995.1,N
1570208595.8,286046996.6,N
1570208615.7,286046997.0,N
1570208635.5,286046999.5,N
1570208655.3,286047000.8,N
1570208675.2,286046999.0,N
1570208695.0,286047002.4,N
1570208695.9,286047002.4,N
1570208715.8,286046999.1,N
1570208735.6,286046997.1,N
1570208755.4,286046996.6,N
1570208775.3,286046999.1,N
1570208795.1,286046996.8,N
1570208815.8,286046995.0,N
1570208835.7,286046998.0,N
1570208855.5,286046995.0,N
1570208875.4,286046995.4,N
1570208895.2,286046995.1,N
1570208915.0,286046998.0,N
1570208915.9,286046998.0,N
1570208935.8,286046999.0,N
1570208955.6,286046999.2,N
1570208975.5,286046998.8,N
1570208995.3,286046999.3,N
1570209015.1,286046997.3,N
1570209035.9,286046995.6,N
1570209055.7,286046992.5,Y
1570209075.5,286046996.5,P
1570209095.4,286046997.2,P
1570209115.2,286046994.1,P
1570209135.1,286046995.5,Y
1570209136.0,286046995.5,P
1570209155.8,286046998.3,P
1570209175.6,286047001.1,N
1570209195.5,286046998.7,N
1570209215.3,286046995.7,N
1570209235.2,286046994.8,N
1570209255.9,286046991.0,Y
1570209275.7,286046991.2,P
1570209295.6,286046989.8,P
1570209315.4,286046989.3,P
1570209335.2,286046988.8,Y
1570209355.1,286046997.6,P
1570209356.0,286046997.6,N
1570209375.8,286046998.0,N
1570209395.7,286046999.7,N
1570209415.5,286047001.2,N
1570209435.3,286046999.1,N
1570209455.2,286046993.7,N
1570209475.0,286046999.2,N
1570209475.9,286046999.2,N
1570209495.7,286046995.1,N
1570209515.6,286046993.4,N
1570209535.4,286046991.2,Y
1570209555.3,286046990.6,P
1570209575.1,286046994.7,N
1570209576.0,286046994.7,N
1570209595.8,286046995.2,N
1570209615.7,286046993.5,Y
1570209635.5,286046998.3,P
1570209655.3,286047001.2,N
1570209675.2,286046999.9,N
1570209695.0,286047001.3,N
1570209695.9,286047001.3,N
1570209715.8,286047003.9,N
1570209735.6,286047002.2,N
1570209755.4,286046999.3,N
1570209775.3,286046996.6,N
1570209795.1,286046996.9,N
1570209815.8,286046999.0,N
1570209835.7,286046998.1,N
1570209855.5,286047000.0,N
1570209875.4,286046999.8,N
1570209895.2,286047004.2,N
1570209915.0,286047004.6,N
1570209915.9,286047004.6,N
1570209935.8,286047010.7,Y
1570209955.6,286047007.6,P
1570209975.4,286047006.4,N
1570209995.3,286047008.0,N
1570210015.1,286047006.5,N
1570210035.9,286047006.5,N
1570210055.7,286047007.2,N
1570210075.5,286047010.6,Y
1570210095.4,286047004.2,P
1570210115.2,286047002.2,N
1570210135.0,286046999.3,N
1570210136.0,286046999.3,N
1570210155.8,286046998.6,N
1570210175.6,286047000.1,N
1570210195.5,286047004.1,N
1570210215.3,286047007.0,N
1570210235.1,286047007.0,N
1570210255.9,286047002.9,N
1570210275.7,286047003.9,N
1570210295.6,286047005.6,N
1570210315.4,286047006.5,N
1570210335.2,286047006.4,N
1570210355.1,286047004.1,N
1570210356.0,286047004.1,N
1570210375.8,286047007.5,N
1570210395.6,286047007.4,N
1570210415.5,286047006.5,N
1570210435.3,286047007.0,N
1570210455.2,286047004.5,N
1570210475.9,286047003.5,N
1570210495.7,286047005.3,N
1570210515.6,286047010.5,Y
1570210535.4,286047005.8,P
1570210555.2,286047006.1,P
1570210575.1,286047005.9,P
1570210576.0,286047005.9,Y
1570210595.8,286046996.4,P
1570210615.7,286046995.7,N
1570210635.5,286046997.8,N
1570210655.3,286046996.5,N
1570210675.2,286046996.0,N
1570210695.0,286046995.2,N
1570210695.9,286046995.2,N
1570210715.7,286046997.5,N
1570210735.6,286046998.7,N
1570210755.4,286046998.2,N
1570210775.3,286046999.3,N
1570210795.1,286047000.1,N
1570210796.0,286047000.1,N
1570210815.8,286047002.8,N
1570210835.7,286047002.6,N
1570210855.5,286047002.8,N
1570210875.3,286047002.2,N
1570210895.2,286047004.0,N
1570210915.0,286047003.0,N
1570210915.9,286047003.0,N
1570210935.8,286047005.0,N
1570210955.6,286047005.0,N
1570211005.5,286047010.2,E
1570211015.4,286047004.2,N
1570211035.2,286046997.0,P
1570211055.1,286046996.5,N
1570211056.0,286046996.5,N
1570211075.8,286046997.1,N
1570211095.6,286046995.4,N
1570211115.5,286046995.5,N
1570211135.3,286046995.1,N
1570211155.1,286046996.1,N
1570211175.9,286046999.5,N
1570211195.7,286047000.4,N
1570211215.6,286047001.3,N
1570211235.4,286047002.6,N
1570211255.2,286046999.8,N
1570211275.1,286046998.1,N
1570211276.0,286046998.1,N
1570211295.8,286046999.0,N
1570211315.6,286046998.5,N
1570211335.5,286046998.9,N
1570211355.3,286047000.7,N
1570211375.2,286047001.8,N
1570211395.9,286047001.8,N
1570211415.7,286047005.2,N
1570211435.6,286047006.0,N
1570211455.4,286047004.9,N
1570211475.2,286047007.2,N
1570211495.1,286047005.3,N
1570211496.0,286047005.3,N
1570211515.8,286047005.6,N
1570211535.7,286047003.0,N
1570211555.5,286047005.5,N
1570211575.3,286047005.7,N
1570211595.2,286047004.5,N
1570211615.0,286047005.4,N
1570211615.9,286047005.4,N
1570211635.8,286047009.2,N
1570211655.6,286047009.6,N
1570211675.4,286047011.4,Y
1570211695.3,286047008.2,P
1570211715.1,286047004.5,N
1570211735.8,286047008.9,P
1570211755.7,286047009.0,Y
1570211775.5,286047003.5,P
1570211795.4,286047002.5,N
1570211815.2,286047002.4,N
1570211835.0,286047004.2,N
1570211835.9,286047004.2,Y
1570211855.8,286046998.8,P
1570211875.6,286046995.1,N
1570211895.5,286046997.0,N
1570211915.3,286046998.1,N
1570211935.1,286046997.4,N
1570211955.9,286046995.6,N
1570211975.7,286046996.2,N
1570211995.5,286046997.9,N
